Wetbulb
61.22 55.03 52.79 51.73 46.83 43.04 39.02 42.06 42.81 44.59 46.40 51.66 54.13 50.42 49.25 51.73 49.71 44.91 61.70 65.24 65.93 67.50 68.83 70.13 71.15 71.64 71.40 71.57 71.61 71.68 71.66 71.12 70.28 69.59 68.86 67.97 67.33 67.34 67.02 66.34 65.95 66.22 66.62 67.44 67.10 66.23 66.52 65.99 65.80
56.93 54.96 52.36 46.80 42.69 39.47 41.34 42.51 43.74 45.65 51.98 54.79 55.09 53.79 52.27 49.81 56.95 61.54 62.30 65.24 67.49 67.70 68.00 69.01 70.37 71.26 70.90 71.12 71.16 71.29 71.44 71.06 70.30 69.71 69.00 67.80 67.12 66.81 66.87 66.27 65.99 65.91 66.46 67.00 66.26 66.43 65.92 66.01 65.54
54.36 52.97 49.21 43.88 40.03 39.99 41.03 42.75 43.89 48.83 54.50 51.74 53.33 55.74 52.93 53.38 60.27 61.57 64.00 67.15 67.12 66.25 67.22 68.56 70.33 71.06 70.75 71.07 70.87 71.27 71.18 70.94 69.82 69.22 68.65 67.61 66.82 66.51 66.23 66.15 66.03 65.74 66.22 66.19 65.88 65.97 66.18 65.86 65.32
52.66 51.41 47.78 42.19 39.73 43.14 44.21 44.20 47.39 49.61 49.22 53.80 54.48 51.69 54.23 58.35 61.47 62.77 66.68 66.74 65.19 65.19 66.34 68.59 70.41 70.85 70.33 70.62 70.68 70.25 70.36 70.18 69.57 68.95 68.46 67.75 66.54 66.05 65.68 65.77 65.86 65.57 65.84 65.86 65.90 66.04 66.07 65.78 65.36
52.21 48.87 43.33 40.18 41.14 43.50 44.73 47.65 48.68 47.61 48.43 50.51 51.95 50.57 51.46 57.69 61.97 65.38 65.58 65.71 64.32 64.60 65.83 67.31 69.70 70.06 70.25 70.16 70.01 70.05 70.61 70.78 69.81 68.71 68.14 67.29 66.22 65.78 65.68 65.31 65.41 65.37 65.37 65.47 65.49 65.62 65.75 65.67 65.34
48.26 46.09 38.68 37.15 40.62 43.03 45.31 49.04 48.60 47.33 48.83 51.41 52.54 53.00 53.05 58.49 63.62 64.27 65.43 64.39 64.76 64.79 65.92 66.47 66.37 67.65 68.76 69.52 69.82 70.05 70.41 70.42 69.81 68.61 67.45 66.76 66.25 65.89 65.47 65.16 65.07 65.21 65.03 65.02 64.91 65.12 64.94 64.69 64.69
45.11 42.67 38.72 37.56 39.17 40.91 45.10 49.46 45.87 47.02 49.44 50.58 55.32 50.64 51.81 59.60 62.26 64.45 64.36 64.21 64.33 65.11 65.28 65.10 65.35 65.49 65.14 66.91 67.39 68.41 69.34 69.69 69.18 68.77 68.22 67.38 66.63 66.17 65.82 65.84 65.23 65.02 64.64 64.42 64.36 64.26 64.20 63.98 63.60
45.46 43.66 38.55 39.02 40.31 40.90 43.91 47.27 47.56 48.97 47.93 54.78 55.35 49.01 49.51 57.10 62.56 64.18 64.84 64.56 64.74 64.20 64.34 63.94 64.02 64.07 63.33 63.68 63.64 65.28 66.66 67.58 67.61 66.87 65.68 64.76 64.81 65.04 64.76 64.05 65.31 64.60 64.24 63.85 63.53 63.44 63.05 63.18 63.17
47.23 40.65 38.82 40.61 39.55 41.34 43.95 45.21 47.77 49.86 50.89 52.08 54.65 52.68 53.73 60.46 63.56 63.51 62.97 63.51 63.87 63.84 63.33 63.15 63.28 62.90 62.43 62.25 61.21 62.76 63.86 64.17 63.94 63.32 62.12 61.18 60.88 60.79 60.57 61.51 64.03 64.36 64.01 63.16 62.71 62.12 61.66 61.01 61.56
45.82 39.70 40.99 45.70 41.22 41.06 43.57 45.16 48.10 48.68 48.90 48.59 50.60 55.00 56.99 60.75 62.65 60.97 60.69 61.25 61.81 61.48 63.09 64.16 62.54 62.13 61.73 62.52 61.02 61.85 62.12 61.43 61.18 60.84 60.29 60.02 59.22 59.06 59.80 59.48 61.69 62.71 62.54 63.07 62.11 61.67 60.36 57.86 55.79
45.92 42.80 44.36 46.49 44.34 44.34 43.54 44.63 46.05 47.66 45.37 49.06 50.85 54.36 56.66 57.77 58.91 60.11 60.75 60.95 60.45 61.07 62.11 63.26 61.94 61.75 61.30 60.55 59.92 60.47 60.20 59.24 59.15 59.15 59.05 58.73 58.46 57.72 57.42 57.14 57.14 56.10 56.63 56.07 56.95 56.62 56.03 55.72 55.40
43.88 47.89 47.56 49.03 50.32 48.32 45.69 44.96 43.82 47.26 48.29 47.74 52.45 55.80 56.80 57.47 57.65 59.37 60.64 61.00 59.99 59.74 61.30 62.95 61.94 61.40 60.68 60.25 59.39 59.51 59.35 58.19 57.67 58.12 58.53 57.72 56.70 55.65 55.03 55.13 54.71 54.22 54.95 54.43 54.83 55.31 55.52 55.20 55.64
43.64 44.63 47.44 49.97 50.76 49.23 46.83 44.73 43.21 43.76 46.65 50.83 54.07 56.59 56.68 57.80 57.77 58.07 60.65 61.93 61.91 59.89 60.74 62.34 62.17 61.69 60.63 59.67 59.14 58.63 58.56 58.35 57.89 57.81 58.73 58.17 56.56 55.03 54.31 53.92 53.69 53.65 54.45 54.77 54.95 54.91 55.37 55.16 55.60
46.01 45.10 46.78 48.50 48.12 47.23 45.05 43.41 44.15 44.97 46.57 52.28 54.61 54.72 55.51 57.11 57.42 56.15 57.92 60.90 61.74 61.23 60.67 62.03 62.40 62.29 61.27 59.84 59.03 58.86 58.06 58.12 57.90 57.77 58.85 58.55 57.26 55.51 54.27 53.70 54.05 54.29 54.99 55.41 55.52 55.28 55.16 55.25 55.67
47.24 44.34 45.68 46.06 47.10 45.23 42.98 42.11 41.80 46.18 48.36 50.90 53.18 53.09 54.17 55.48 56.51 57.51 58.85 59.62 61.42 61.75 61.58 61.40 62.09 62.52 61.71 60.61 59.40 58.91 58.65 58.38 57.73 57.76 58.11 58.05 57.70 56.16 55.26 54.63 54.56 55.42 56.22 56.15 55.77 55.32 55.17 55.04 56.00
41.61 40.19 36.73 44.12 46.78 47.37 41.92 40.78 45.19 46.19 48.76 48.37 51.72 52.45 53.60 54.85 56.28 57.28 58.40 58.57 59.45 61.20 61.43 61.98 62.34 62.10 61.65 61.42 60.39 59.50 58.94 58.56 58.42 58.15 58.04 57.98 57.79 56.90 55.52 55.39 55.26 56.09 56.48 55.98 55.10 54.76 54.35 53.90 53.62
37.10 31.56 33.77 39.75 43.98 44.50 41.07 38.86 45.20 46.23 46.89 47.03 49.19 51.84 53.06 54.22 55.18 56.80 58.02 58.28 58.85 60.05 61.05 61.71 62.20 61.39 61.52 61.06 60.78 60.09 59.07 58.78 59.02 58.23 58.36 58.17 57.93 57.29 56.13 55.05 55.56 56.09 56.05 55.62 55.43 54.69 53.79 52.84 52.31
33.70 34.23 33.84 35.38 39.67 40.48 40.30 40.27 43.14 43.56 43.48 43.43 43.99 47.02 51.10 53.43 55.23 57.56 58.02 58.12 58.94 59.27 59.52 61.46 62.71 61.74 61.89 61.57 60.69 59.73 58.32 58.00 57.98 58.48 58.81 58.51 58.57 57.57 55.88 55.17 55.30 55.79 55.54 55.21 54.60 54.29 53.21 52.67 52.16
36.83 34.25 34.49 35.55 41.91 38.54 37.89 39.64 43.31 45.66 42.99 42.53 43.73 44.28 45.15 51.29 55.56 56.81 57.38 57.59 58.34 58.47 59.01 59.34 60.71 62.42 60.92 60.71 58.64 58.16 57.89 57.16 56.72 57.51 57.96 58.24 58.23 57.03 56.28 55.72 55.28 55.54 55.92 55.94 54.81 53.86 53.23 52.31 52.08
37.81 33.93 33.15 38.24 40.78 39.04 38.56 38.73 42.61 42.07 42.98 45.04 46.61 45.30 45.98 44.67 48.38 53.89 56.13 56.46 57.73 58.87 59.36 59.41 59.55 60.76 61.60 59.97 59.73 58.44 58.08 57.56 58.34 57.36 57.06 57.68 57.70 57.62 57.61 56.74 55.80 55.55 55.44 54.60 54.27 53.52 52.09 52.31 52.98
37.58 39.33 37.48 35.42 39.21 37.90 35.67 35.62 38.79 41.43 42.04 44.54 43.98 46.81 47.38 47.24 45.79 47.14 51.47 56.22 57.55 57.90 58.86 59.41 59.63 60.12 61.42 62.30 59.80 56.21 56.07 55.05 54.83 54.78 56.03 56.78 57.83 57.80 57.52 56.76 56.94 55.87 56.14 55.91 55.45 54.67 53.15 52.23 51.82
36.14 40.12 39.77 38.52 36.52 30.43 34.55 29.15 35.60 38.25 40.31 42.02 44.15 44.38 45.52 46.89 46.04 47.72 46.74 51.57 56.29 57.99 59.10 59.59 60.07 59.66 60.55 61.85 61.00 58.80 58.41 56.84 57.18 57.56 56.96 56.71 57.23 57.55 57.43 57.51 57.07 56.71 56.60 56.54 56.25 55.90 55.42 52.97 52.73
36.96 40.87 39.65 38.70 36.88 34.23 33.88 32.84 33.97 36.32 36.69 39.82 42.78 43.97 46.06 46.41 47.58 47.25 48.16 48.83 54.14 57.65 58.80 59.50 59.67 59.76 60.17 61.13 61.87 59.97 59.34 59.77 58.77 56.37 55.03 55.82 56.27 57.43 57.58 57.53 56.81 56.95 56.79 56.82 56.67 54.69 55.15 54.84 55.50
41.20 38.54 37.06 34.97 35.54 30.42 33.22 32.08 30.85 34.56 36.58 39.70 42.44 43.96 45.34 46.10 47.38 48.69 49.89 49.01 51.05 56.33 57.99 59.16 58.92 59.32 59.90 60.44 61.08 60.84 60.18 59.85 58.38 56.16 55.69 55.13 55.98 56.48 57.38 57.51 57.71 57.58 57.43 56.92 56.63 56.33 55.55 55.71 55.55
39.54 35.10 26.28 29.21 29.24 25.82 30.28 29.93 34.46 37.70 39.31 41.11 42.47 43.68 45.09 45.06 45.63 46.61 47.92 47.86 49.35 51.98 56.77 58.21 58.57 58.40 59.41 60.03 60.43 60.99 60.64 60.39 59.91 58.67 57.10 56.93 55.93 56.30 56.66 57.35 57.35 57.61 57.63 57.65 57.25 56.21 56.23 55.64 55.69
38.78 35.61 27.93 23.91 23.44 24.91 29.53 27.11 32.11 39.90 43.74 44.79 45.54 45.89 45.73 44.32 44.31 45.43 47.12 48.11 48.25 49.37 53.59 56.58 57.93 58.10 58.80 59.25 59.83 60.65 61.23 60.74 60.45 60.37 59.43 58.24 58.42 58.22 58.03 57.33 57.89 57.82 57.92 57.54 57.14 57.00 56.55 56.64 55.88
37.95 35.06 37.75 31.29 16.64 23.98 27.09 31.07 36.60 38.35 39.61 40.92 42.12 43.89 44.21 45.47 44.87 44.44 45.67 46.14 47.37 47.90 49.77 54.61 56.83 57.89 58.12 58.23 59.48 59.99 60.42 60.58 60.23 60.17 60.06 59.46 58.93 58.96 57.72 57.59 57.55 57.79 57.55 57.35 57.26 56.92 56.82 56.84 56.22
40.22 41.69 32.31 33.70 23.88 19.33 25.08 25.79 30.57 34.10 37.47 39.92 41.04 43.43 43.81 41.91 43.44 43.87 44.07 44.27 44.76 46.03 48.13 53.04 56.39 57.45 57.24 57.64 58.27 58.75 59.28 59.79 60.29 60.04 59.12 59.20 59.42 58.30 56.41 56.45 57.42 57.63 57.57 57.44 57.37 57.64 57.70 57.14 56.80
37.63 35.61 36.53 35.89 32.48 24.37 19.77 26.33 33.59 37.63 39.83 39.12 40.11 41.51 40.91 41.80 41.95 41.92 41.45 40.05 40.66 41.19 43.76 49.70 53.84 55.37 54.81 55.44 56.98 57.59 58.11 58.60 59.06 58.96 58.76 58.57 57.82 57.19 56.64 56.79 56.86 57.06 57.26 57.46 57.53 57.82 57.68 56.94 56.60
38.72 36.60 36.44 31.27 26.90 31.84 29.34 30.83 36.66 36.60 37.03 37.60 37.86 38.73 38.27 39.23 38.69 37.35 37.58 38.48 39.00 39.54 40.54 46.80 50.99 53.33 54.13 53.54 53.66 55.24 56.69 56.75 57.26 57.69 58.16 57.11 57.26 56.50 56.75 56.63 56.51 56.80 57.21 57.55 57.29 57.26 57.19 56.74 56.36
MSLP
1015.51 1014.95 1014.68 1015.05 1016.98 1017.88 1017.87 1017.58 1017.23 1017.36 1017.56 1017.71 1017.92 1018.41 1018.81 1019.21 1019.41 1020.22 1019.62 1019.79 1019.70 1020.00 1020.14 1020.16 1020.37 1020.50 1020.67 1020.76 1020.93 1020.99 1021.11 1021.21 1021.44 1021.65 1021.83 1022.05 1022.12 1022.25 1022.50 1022.62 1022.72 1022.80 1022.84 1023.03 1023.13 1023.11 1023.14 1023.26 1023.39
1015.70 1014.98 1015.03 1016.40 1017.70 1018.44 1018.09 1017.44 1017.27 1017.30 1017.77 1017.91 1018.26 1018.66 1019.00 1019.51 1019.47 1019.49 1019.73 1019.91 1019.87 1020.10 1020.37 1020.38 1020.55 1020.74 1020.93 1021.09 1021.21 1021.30 1021.40 1021.47 1021.63 1021.83 1022.06 1022.31 1022.31 1022.42 1022.76 1022.85 1023.01 1023.19 1023.16 1023.34 1023.44 1023.50 1023.52 1023.63 1023.72
1015.69 1015.50 1016.21 1017.33 1018.41 1018.41 1017.88 1017.28 1017.22 1017.45 1017.84 1017.98 1018.63 1018.93 1019.22 1019.46 1019.51 1019.56 1019.53 1019.78 1020.05 1020.42 1020.62 1020.58 1020.71 1020.91 1021.09 1021.28 1021.46 1021.56 1021.66 1021.78 1021.94 1022.09 1022.26 1022.47 1022.63 1022.72 1022.94 1023.03 1023.25 1023.42 1023.42 1023.53 1023.66 1023.73 1023.86 1024.00 1024.03
1016.13 1016.03 1017.52 1017.80 1018.29 1017.83 1017.49 1017.23 1017.36 1017.70 1018.00 1018.22 1018.67 1019.37 1019.51 1019.34 1019.33 1019.40 1019.63 1019.87 1020.24 1020.73 1020.92 1020.76 1020.87 1020.98 1021.20 1021.39 1021.58 1021.76 1021.89 1022.03 1022.22 1022.39 1022.54 1022.80 1022.92 1023.06 1023.20 1023.31 1023.53 1023.67 1023.69 1023.81 1023.98 1024.09 1024.12 1024.18 1024.28
1016.74 1016.97 1017.95 1018.31 1018.03 1017.48 1017.13 1017.22 1017.57 1017.84 1017.99 1018.47 1018.72 1019.38 1019.66 1019.42 1019.32 1019.50 1019.76 1020.04 1020.46 1020.84 1021.14 1021.06 1021.02 1021.11 1021.31 1021.54 1021.76 1021.93 1021.98 1022.13 1022.46 1022.74 1022.82 1023.09 1023.23 1023.37 1023.51 1023.58 1023.73 1023.98 1024.09 1024.23 1024.36 1024.40 1024.40 1024.45 1024.59
1017.50 1018.08 1018.57 1018.50 1018.06 1017.19 1016.93 1017.11 1017.34 1017.81 1018.20 1018.67 1018.93 1019.50 1019.78 1019.63 1019.62 1019.78 1019.92 1020.31 1020.61 1020.78 1021.17 1021.31 1021.23 1021.37 1021.47 1021.67 1021.88 1022.04 1022.11 1022.34 1022.67 1023.01 1023.09 1023.37 1023.57 1023.73 1023.83 1023.90 1024.04 1024.30 1024.43 1024.53 1024.66 1024.71 1024.73 1024.81 1024.95
1018.28 1018.84 1018.79 1018.43 1018.10 1017.36 1016.94 1016.97 1017.37 1017.81 1018.22 1018.55 1018.68 1019.75 1019.95 1019.85 1019.75 1019.83 1020.04 1020.47 1020.83 1020.98 1021.22 1021.53 1021.50 1021.63 1021.59 1021.78 1022.00 1022.14 1022.28 1022.52 1022.77 1023.12 1023.30 1023.55 1023.79 1023.95 1024.08 1024.14 1024.33 1024.52 1024.70 1024.83 1024.94 1025.01 1025.06 1025.15 1025.23
1018.88 1019.11 1019.07 1018.56 1017.99 1017.48 1017.03 1017.06 1017.14 1017.64 1018.13 1018.52 1018.63 1019.22 1019.62 1019.27 1019.75 1019.96 1020.31 1020.79 1021.07 1021.15 1021.34 1021.65 1021.74 1021.86 1021.94 1021.82 1022.15 1022.39 1022.61 1022.83 1023.07 1023.32 1023.55 1023.84 1024.05 1024.20 1024.43 1024.56 1024.65 1024.83 1024.98 1025.13 1025.28 1025.37 1025.51 1025.59 1025.60
1019.20 1019.37 1019.10 1018.46 1018.14 1017.36 1016.91 1017.01 1017.16 1017.42 1018.03 1018.48 1018.70 1018.82 1019.04 1019.05 1019.55 1020.12 1020.49 1020.92 1021.24 1021.46 1021.50 1021.63 1021.86 1021.97 1022.06 1022.04 1022.32 1022.60 1022.93 1023.26 1023.51 1023.68 1023.92 1024.19 1024.58 1024.77 1024.92 1025.02 1025.08 1025.18 1025.28 1025.39 1025.57 1025.69 1025.85 1025.94 1025.97
1019.55 1019.54 1018.76 1018.13 1017.80 1017.64 1017.12 1017.04 1017.20 1017.55 1018.03 1018.46 1018.60 1018.88 1019.05 1019.42 1019.59 1019.86 1020.27 1020.60 1021.10 1021.37 1021.48 1021.58 1021.86 1022.10 1022.23 1022.25 1022.53 1022.85 1023.14 1023.44 1023.68 1023.88 1024.16 1024.47 1024.79 1025.07 1025.25 1025.35 1025.43 1025.55 1025.62 1025.62 1025.72 1025.90 1026.10 1026.22 1026.32
1019.78 1019.59 1018.79 1018.21 1017.92 1017.78 1017.44 1017.11 1017.30 1017.47 1018.09 1017.99 1018.36 1018.65 1019.27 1019.67 1019.77 1019.89 1020.15 1020.24 1020.59 1021.09 1021.39 1021.48 1021.80 1022.08 1022.29 1022.47 1022.66 1022.97 1023.28 1023.65 1023.94 1024.18 1024.37 1024.57 1024.79 1025.08 1025.42 1025.63 1025.75 1025.93 1026.03 1026.12 1026.17 1026.30 1026.39 1026.43 1026.59
1020.13 1019.44 1019.17 1018.48 1018.27 1018.10 1017.64 1017.45 1017.38 1017.52 1017.22 1017.28 1017.72 1018.36 1019.06 1019.50 1019.58 1019.71 1019.88 1020.16 1020.52 1020.89 1021.00 1021.17 1021.54 1021.85 1022.33 1022.56 1022.79 1022.87 1023.17 1023.45 1023.79 1024.06 1024.37 1024.69 1025.08 1025.35 1025.62 1025.83 1025.96 1026.13 1026.29 1026.35 1026.37 1026.47 1026.53 1026.58 1026.64
1020.17 1019.59 1019.26 1018.91 1018.62 1018.29 1017.57 1017.42 1017.43 1017.32 1017.01 1017.24 1017.78 1018.39 1018.85 1019.13 1019.45 1019.61 1019.66 1019.97 1020.26 1020.46 1020.69 1020.86 1021.17 1021.55 1021.99 1022.47 1022.74 1023.07 1023.10 1023.22 1023.49 1023.87 1024.15 1024.47 1024.83 1025.22 1025.43 1025.63 1025.83 1026.00 1026.08 1026.18 1026.28 1026.35 1026.40 1026.55 1026.67
1020.23 1019.94 1019.56 1019.07 1018.79 1018.23 1017.89 1017.53 1017.44 1016.96 1017.19 1017.62 1018.03 1018.40 1018.75 1018.91 1019.00 1019.55 1019.73 1019.73 1020.05 1020.16 1020.45 1020.56 1020.95 1021.18 1021.61 1022.16 1022.54 1022.82 1023.17 1023.35 1023.49 1023.65 1023.83 1024.08 1024.43 1024.84 1025.27 1025.52 1025.63 1025.83 1025.99 1026.13 1026.20 1026.31 1026.43 1026.51 1026.67
1020.40 1020.36 1019.90 1019.19 1018.96 1018.52 1018.11 1017.80 1017.02 1017.19 1017.48 1018.01 1018.29 1018.57 1018.85 1018.81 1019.13 1018.98 1019.08 1019.36 1019.57 1019.81 1020.09 1020.35 1020.59 1020.89 1021.28 1021.67 1022.18 1022.58 1022.81 1023.07 1023.46 1023.70 1023.84 1023.95 1024.18 1024.63 1024.97 1025.34 1025.60 1025.67 1025.90 1026.04 1026.15 1026.23 1026.35 1026.50 1026.57
1020.97 1020.86 1020.76 1019.71 1019.01 1018.66 1018.55 1017.75 1017.05 1017.06 1017.61 1017.88 1018.32 1018.49 1018.58 1018.54 1018.40 1018.75 1018.91 1019.07 1019.23 1019.49 1019.77 1020.09 1020.10 1020.40 1020.91 1021.16 1021.60 1022.06 1022.46 1022.70 1022.90 1023.14 1023.40 1023.68 1024.01 1024.33 1024.74 1025.05 1025.29 1025.32 1025.50 1025.75 1026.05 1026.23 1026.44 1026.53 1026.62
1021.80 1021.52 1021.38 1020.46 1019.31 1018.96 1018.93 1018.29 1017.27 1017.08 1017.57 1018.00 1018.35 1018.40 1018.24 1018.15 1018.05 1017.88 1018.14 1018.50 1018.80 1018.96 1019.26 1019.66 1019.88 1020.13 1020.37 1020.77 1021.16 1021.42 1021.81 1022.32 1022.43 1022.72 1023.00 1023.16 1023.46 1023.86 1024.27 1024.65 1024.87 1025.10 1025.39 1025.69 1025.86 1026.04 1026.11 1026.29 1026.44
1021.87 1022.02 1021.59 1020.77 1019.70 1019.44 1019.23 1018.19 1018.00 1017.63 1017.97 1018.15 1018.10 1018.28 1018.34 1017.91 1017.32 1016.88 1017.24 1017.64 1018.03 1018.38 1018.67 1019.05 1019.34 1019.63 1019.83 1020.08 1020.59 1021.24 1021.55 1021.80 1022.17 1022.21 1022.35 1022.69 1022.93 1023.26 1023.91 1024.31 1024.51 1024.83 1025.17 1025.32 1025.50 1025.76 1026.02 1026.21 1026.42
1021.67 1021.81 1021.61 1020.99 1020.10 1019.97 1019.63 1018.82 1018.23 1017.75 1017.87 1017.85 1017.87 1017.62 1017.47 1017.35 1016.72 1016.59 1016.80 1016.95 1017.47 1017.86 1018.16 1018.33 1018.76 1018.88 1019.36 1019.77 1020.31 1020.78 1020.98 1021.49 1021.79 1021.91 1022.04 1022.20 1022.51 1022.89 1023.41 1023.89 1024.15 1024.41 1024.68 1024.78 1024.95 1025.38 1025.78 1026.13 1026.36
1021.76 1021.85 1021.85 1021.31 1020.64 1020.62 1020.07 1019.01 1018.14 1017.78 1017.36 1017.09 1016.88 1016.72 1016.54 1016.49 1016.24 1016.11 1016.36 1016.56 1016.55 1016.73 1016.92 1017.57 1017.82 1018.15 1018.42 1018.90 1019.28 1019.64 1020.14 1020.48 1020.58 1020.97 1021.28 1021.63 1021.91 1022.28 1022.62 1023.00 1023.47 1023.83 1024.23 1024.49 1024.72 1025.00 1025.45 1025.69 1026.04
1021.79 1021.82 1021.82 1021.93 1021.37 1020.81 1020.49 1019.13 1017.87 1016.96 1016.49 1015.92 1015.81 1015.54 1015.33 1015.22 1015.41 1015.27 1015.60 1015.56 1015.58 1015.66 1015.86 1016.07 1016.50 1017.13 1017.54 1017.97 1018.75 1019.36 1019.65 1020.10 1020.39 1020.64 1020.73 1020.93 1021.23 1021.52 1021.91 1022.35 1022.76 1023.13 1023.44 1023.79 1024.11 1024.42 1024.73 1025.21 1025.65
1021.59 1021.55 1021.90 1022.13 1022.40 1021.82 1021.15 1019.27 1017.39 1016.68 1016.15 1015.68 1015.11 1014.95 1014.66 1014.45 1014.42 1014.26 1014.25 1014.60 1014.84 1014.59 1014.90 1015.21 1015.57 1016.11 1016.57 1017.19 1017.71 1018.21 1018.64 1018.97 1019.03 1019.32 1019.76 1019.98 1020.45 1020.73 1021.03 1021.39 1021.84 1022.25 1022.58 1022.91 1023.04 1023.32 1023.90 1024.44 1024.91
1021.28 1021.32 1021.69 1021.94 1022.32 1022.26 1021.28 1021.24 1016.51 1016.23 1015.83 1015.12 1014.40 1014.15 1013.76 1013.57 1013.37 1013.26 1013.18 1013.11 1013.22 1013.66 1013.88 1013.81 1014.45 1014.90 1015.58 1016.09 1016.30 1016.87 1017.42 1017.60 1018.15 1018.58 1018.91 1019.35 1019.76 1020.07 1020.30 1020.72 1021.15 1021.38 1021.69 1021.87 1022.16 1022.70 1023.14 1023.44 1023.72
1020.94 1021.49 1021.99 1022.29 1022.53 1021.97 1019.51 1020.57 1016.35 1015.68 1014.77 1014.23 1013.52 1013.24 1012.98 1012.78 1012.58 1012.24 1012.23 1012.42 1012.46 1012.71 1013.18 1013.38 1013.69 1013.87 1014.43 1014.78 1015.29 1015.63 1016.00 1016.58 1017.32 1017.74 1018.19 1018.56 1018.84 1019.27 1019.59 1019.87 1019.99 1020.26 1020.59 1020.88 1021.16 1021.54 1022.05 1022.43 1022.68
1020.89 1021.56 1022.19 1022.44 1022.46 1020.87 1019.41 1019.61 1015.98 1014.76 1014.08 1013.81 1013.22 1012.66 1012.25 1011.91 1012.07 1011.93 1011.90 1011.94 1011.96 1012.10 1012.23 1012.49 1012.78 1012.87 1013.29 1013.78 1014.12 1014.45 1014.80 1015.39 1015.84 1016.39 1016.87 1017.56 1017.93 1018.03 1018.19 1018.57 1019.13 1019.26 1019.40 1019.77 1020.26 1020.76 1021.08 1021.25 1021.36
1020.49 1020.88 1021.58 1021.70 1022.03 1020.81 1019.89 1018.48 1014.47 1013.66 1012.71 1012.58 1012.18 1011.90 1011.62 1011.53 1011.41 1011.51 1011.48 1011.42 1011.43 1011.40 1011.40 1011.61 1011.92 1012.00 1012.34 1012.67 1013.02 1013.47 1013.82 1014.47 1014.76 1015.19 1015.79 1016.19 1016.43 1016.71 1017.05 1017.55 1017.83 1018.19 1018.62 1018.96 1019.35 1019.72 1019.78 1020.05 1020.38
1020.43 1020.46 1020.50 1021.67 1022.39 1021.70 1019.42 1016.87 1014.22 1013.34 1012.81 1012.36 1011.94 1011.59 1011.34 1011.00 1010.97 1011.14 1011.02 1010.86 1010.79 1010.78 1010.87 1011.00 1011.24 1011.32 1011.48 1011.55 1011.91 1012.41 1013.02 1013.47 1013.76 1014.23 1014.84 1015.16 1015.47 1015.74 1016.18 1016.56 1017.15 1017.41 1017.78 1018.01 1018.32 1018.78 1018.97 1019.36 1019.47
1019.89 1020.03 1020.71 1021.20 1021.52 1021.03 1018.45 1017.15 1014.51 1013.58 1013.08 1012.15 1011.81 1011.07 1010.88 1011.21 1010.96 1010.66 1010.62 1010.44 1010.40 1010.26 1010.00 1010.50 1010.46 1010.71 1010.79 1011.01 1011.44 1011.78 1012.18 1012.57 1012.94 1013.53 1013.94 1014.17 1014.50 1015.13 1015.61 1015.99 1016.41 1016.74 1016.99 1017.20 1017.54 1017.81 1018.03 1018.40 1018.40
1019.74 1019.67 1020.05 1020.33 1020.25 1019.90 1018.30 1015.43 1013.08 1012.32 1011.55 1011.60 1011.53 1011.19 1011.17 1011.03 1010.59 1010.26 1010.27 1010.17 1010.14 1010.01 1009.97 1009.98 1010.39 1010.37 1010.61 1010.83 1011.04 1011.49 1011.82 1012.14 1012.38 1012.86 1013.24 1013.59 1014.08 1014.45 1014.79 1015.07 1015.54 1015.92 1016.15 1016.39 1016.72 1016.89 1017.00 1017.23 1017.32
1018.94 1018.94 1019.18 1019.66 1019.78 1019.30 1018.39 1012.84 1011.81 1011.67 1011.46 1011.42 1011.21 1011.22 1011.22 1011.18 1010.47 1010.36 1010.31 1010.00 1010.17 1010.15 1009.91 1009.88 1010.08 1010.42 1010.49 1010.63 1011.10 1011.23 1011.55 1011.92 1012.20 1012.38 1012.67 1012.94 1013.31 1013.64 1013.95 1014.26 1014.61 1014.97 1015.29 1015.43 1015.66 1015.82 1015.91 1016.01 1016.13
Wind_Speed
9 7 1 6 5 5 2 4 1 2 1 1 3 3 5 3 4 4 1 2 7 6 5 6 11 13 12 11 11 12 14 16 18 17 18 17 16 17 15 15 14 13 13 16 15 14 16 17 15
6 5 5 3 5 2 5 3 4 4 4 5 4 2 4 1 1 4 5 4 6 7 4 5 11 11 11 10 10 11 12 15 17 17 18 16 15 15 14 14 14 13 13 14 14 13 15 14 14
4 4 4 5 3 4 4 3 4 1 6 2 3 4 2 3 1 6 4 8 7 6 5 5 11 11 11 9 9 10 10 13 15 15 16 15 15 13 14 14 13 13 12 13 13 13 14 14 15
4 4 4 4 3 5 4 1 4 6 1 3 3 5 2 2 6 4 8 9 8 6 4 7 11 12 10 9 9 11 11 13 15 15 16 14 14 13 13 13 13 12 12 12 12 13 13 13 13
4 2 3 1 4 4 3 2 6 4 3 2 1 4 2 1 1 9 9 8 9 6 4 5 10 11 9 8 10 9 9 14 15 14 15 13 12 13 11 11 11 11 11 11 11 12 12 11 11
4 2 3 4 4 3 3 5 5 3 2 3 4 6 3 1 9 7 8 7 6 8 6 4 7 7 9 8 9 6 10 14 15 14 15 13 12 11 11 11 10 10 10 10 10 11 11 10 8
4 3 3 4 3 3 2 6 3 4 3 4 8 5 2 3 5 8 8 7 6 6 6 4 5 5 8 8 8 7 9 14 15 14 13 12 10 10 9 9 9 9 9 9 9 10 10 9 6
3 4 2 4 4 4 2 4 4 5 3 2 3 4 5 6 8 7 7 7 6 5 5 6 4 4 4 6 8 7 7 10 11 11 11 10 9 9 7 6 7 8 8 8 8 8 9 8 8
1 3 2 3 3 3 1 4 3 2 5 1 1 2 3 9 11 8 7 5 5 4 4 5 5 5 5 5 6 8 9 9 9 8 9 7 4 5 5 4 5 6 6 7 6 6 7 8 8
3 2 7 3 1 3 3 2 5 4 3 2 2 1 3 11 13 14 13 10 8 10 7 6 5 5 5 3 5 5 5 5 4 5 6 4 5 3 3 3 4 4 4 4 5 5 7 6 3
2 3 2 3 1 2 4 2 1 7 2 6 8 6 7 7 8 13 13 14 14 12 9 10 6 5 5 4 3 3 3 3 3 5 4 4 3 3 2 2 2 2 4 3 4 3 2 3 3
1 4 3 4 2 4 2 4 2 5 6 1 8 6 9 12 13 12 14 14 10 9 11 12 7 7 5 4 3 4 4 4 4 4 6 4 3 3 2 1 1 1 1 1 1 1 1 2 3
2 3 3 6 7 7 3 2 3 6 6 2 6 8 12 12 10 7 8 10 12 10 10 12 9 8 6 5 4 3 4 4 5 5 5 4 4 4 4 3 3 3 2 2 2 2 1 1 2
1 4 5 3 5 4 4 1 1 5 2 4 7 9 9 12 12 5 7 11 13 11 10 10 11 9 8 6 6 5 4 3 4 4 5 6 4 4 4 4 3 3 3 2 2 2 2 1 1
2 5 6 4 1 4 2 6 8 5 2 5 7 6 6 8 7 13 12 11 11 8 10 11 11 10 10 9 6 4 4 5 4 4 5 5 5 5 5 4 4 4 3 3 3 2 1 1 0
0 2 1 5 5 5 2 12 6 6 6 8 7 7 8 9 10 8 7 7 8 7 10 11 10 12 10 10 7 6 5 5 6 5 5 7 6 6 5 4 4 5 4 3 2 2 2 1 1
3 3 3 7 3 2 5 8 8 5 8 8 8 9 9 9 9 11 10 9 8 10 10 10 10 12 13 10 7 7 8 7 6 5 5 8 8 8 6 4 4 4 3 3 3 3 3 3 2
6 4 3 5 3 4 5 16 9 6 5 9 8 8 8 9 15 15 12 10 9 9 9 10 10 11 12 9 8 5 5 5 4 6 7 8 7 8 6 4 5 4 4 4 3 5 2 2 2
4 2 4 3 6 2 6 14 14 12 6 8 9 9 11 12 14 10 7 9 9 8 10 12 11 12 9 8 6 5 7 6 5 5 6 7 7 7 7 5 5 5 6 6 5 4 5 4 3
3 2 3 5 4 3 8 15 14 9 10 11 14 13 13 8 9 12 9 9 13 16 15 12 14 13 12 9 7 4 5 5 8 7 8 8 9 9 9 8 7 7 5 5 6 5 3 3 5
4 10 3 3 6 3 5 11 11 8 8 12 10 15 13 14 13 12 10 15 15 16 16 16 17 15 13 14 5 2 2 2 3 3 6 9 10 10 10 9 8 7 7 7 7 7 7 4 4
9 7 4 4 4 4 2 9 9 4 9 9 13 11 15 14 9 13 11 13 14 17 15 16 16 15 14 14 11 14 12 11 8 9 7 7 11 11 11 11 10 9 7 9 8 7 7 5 6
4 6 8 5 5 3 8 6 8 2 7 10 10 11 12 12 14 15 16 15 15 15 15 17 17 16 16 16 17 13 14 11 8 6 8 10 8 12 11 11 10 11 9 10 10 7 9 8 7
7 5 3 3 2 6 15 10 6 7 7 6 8 10 11 10 13 15 14 9 12 11 12 13 15 17 17 18 19 18 18 15 10 9 9 7 8 8 10 12 13 12 11 12 10 10 11 11 10
5 7 2 4 5 11 2 8 17 10 6 7 10 12 14 10 10 10 11 10 11 11 14 14 15 18 18 19 18 20 19 17 17 13 11 10 8 8 12 14 12 11 12 12 10 10 12 12 13
10 7 5 5 4 7 3 9 9 14 16 17 18 17 14 10 9 10 10 9 9 11 12 14 16 18 17 18 19 18 19 12 13 14 11 11 11 10 9 12 13 13 12 11 11 10 11 12 11
3 13 7 1 1 1 5 11 10 8 10 9 13 12 13 14 9 9 10 10 9 9 11 14 15 16 16 18 17 17 15 17 15 16 12 11 11 10 10 11 12 12 12 12 12 10 12 10 11
4 2 4 5 5 6 6 7 13 7 9 13 12 16 10 6 9 9 9 8 7 8 7 8 13 15 14 14 14 13 15 15 15 11 13 14 12 9 7 10 11 11 12 13 12 11 11 11 10
7 6 3 1 3 3 3 10 9 15 15 9 9 10 10 10 10 8 7 6 6 4 5 6 7 8 7 9 10 11 11 12 12 11 11 11 7 8 10 11 11 12 13 12 12 13 13 12 13
7 8 11 5 4 3 2 21 5 9 8 6 10 10 8 10 9 7 6 3 3 3 1 3 4 6 5 6 6 8 8 8 9 10 11 8 11 9 11 11 11 12 13 12 13 14 13 14 15
Wind_Direction
324 312 34 40 47 58 277 263 271 137 179 314 67 137 166 72 151 203 18 134 127 123 132 122 129 128 123 121 124 119 119 119 116 112 107 104 100 98 96 95 92 94 105 96 90 84 88 100 91
318 315 41 79 84 45 271 256 201 195 142 128 79 72 54 102 79 119 109 131 122 122 123 122 130 128 125 126 131 128 125 122 120 116 112 108 106 102 98 99 94 99 107 103 93 92 97 97 91
305 22 70 84 104 190 237 230 162 138 152 78 93 46 113 160 212 149 113 123 112 109 125 137 130 132 132 126 128 126 123 127 121 122 118 111 107 104 110 99 99 103 112 105 98 94 102 93 89
348 22 48 86 230 248 216 236 175 127 224 85 126 70 360 275 154 179 133 121 114 117 138 145 138 139 141 130 125 130 136 133 127 124 119 116 114 108 108 106 101 104 109 107 100 95 97 100 91
30 18 68 21 262 259 257 219 157 153 131 123 175 180 141 15 183 132 131 127 132 131 140 149 143 144 142 133 134 134 151 141 131 126 121 121 121 111 113 112 109 108 110 110 103 98 93 95 101
36 70 92 205 242 271 309 155 142 133 146 147 87 132 190 261 145 141 132 131 136 138 144 151 138 144 139 139 140 144 144 134 130 130 124 125 124 125 123 118 116 116 118 115 104 97 90 92 103
112 89 215 181 247 292 212 146 154 155 156 236 148 133 265 188 168 141 128 124 131 135 135 142 148 160 136 132 136 125 133 134 135 136 128 128 127 130 127 123 126 127 121 111 100 91 86 83 92
105 96 144 254 202 234 299 166 126 149 203 136 158 188 217 194 159 129 133 140 143 145 145 150 158 154 143 135 132 119 114 121 127 123 121 122 125 120 117 107 125 124 116 105 94 83 74 68 74
353 77 192 238 182 225 274 176 136 121 117 225 295 163 328 138 135 135 140 129 140 158 158 157 167 168 157 140 124 115 108 103 103 108 113 95 93 95 95 113 99 113 109 104 83 61 65 75 66
84 147 211 215 163 299 281 186 156 123 128 256 292 199 90 146 157 166 174 166 169 180 181 186 171 174 156 131 123 120 121 122 125 121 122 118 117 112 108 86 84 79 83 81 63 48 62 79 76
128 220 274 246 107 330 290 89 28 124 206 218 207 178 157 169 172 177 184 180 181 188 188 192 180 169 162 148 139 132 134 130 127 138 141 140 127 120 105 94 65 42 29 27 30 25 37 87 93
217 247 249 301 79 334 331 310 233 195 206 158 223 156 167 179 187 183 186 192 180 179 189 192 177 164 179 149 164 156 157 156 158 162 155 143 135 138 145 145 114 82 27 344 8 353 339 84 101
192 261 237 277 291 286 262 268 269 243 243 101 135 155 184 191 197 199 185 197 196 192 189 193 175 176 170 173 163 177 182 169 168 161 167 156 160 178 175 181 172 194 201 209 217 218 232 165 140
289 262 282 310 310 272 280 193 100 286 123 124 166 192 190 200 192 182 188 195 203 196 198 184 188 182 168 175 178 184 177 191 176 174 180 177 175 178 190 195 199 211 209 218 210 213 225 234 130
301 347 332 255 280 282 231 276 218 226 159 193 200 212 221 221 200 209 205 202 191 199 194 192 188 182 177 182 182 180 188 178 185 196 196 189 181 186 189 195 207 215 209 219 221 231 185 265 33
306 57 294 294 167 265 153 266 282 213 170 228 219 220 224 224 216 227 217 200 188 186 192 198 193 183 188 187 185 185 194 193 199 189 184 195 197 191 194 197 210 206 200 197 189 189 216 224 201
345 231 202 309 211 210 179 274 280 211 189 235 229 223 224 238 227 222 214 202 197 194 189 195 192 196 188 191 192 193 191 206 205 193 195 198 195 199 201 198 217 196 187 192 195 206 187 191 179
194 225 229 229 281 190 232 256 271 281 200 243 246 252 251 243 238 230 209 202 198 200 193 196 191 197 200 190 191 197 198 198 203 207 205 201 204 196 187 199 209 182 186 201 193 201 196 174 164
140 196 217 248 264 303 242 264 267 273 253 231 248 245 242 237 247 249 221 194 201 197 199 197 188 197 187 192 181 197 206 201 208 214 212 204 202 190 187 205 199 189 202 205 193 169 189 202 155
128 163 257 281 292 181 282 272 272 263 255 242 250 246 243 237 244 249 224 207 200 216 211 200 207 196 194 192 202 184 175 203 210 202 206 203 199 201 201 203 204 197 200 204 192 177 177 201 179
204 230 198 264 329 267 306 277 260 249 237 250 242 244 244 236 229 244 223 217 215 218 210 204 209 207 200 200 179 116 114 105 159 194 207 211 208 204 203 197 201 198 195 207 206 197 184 196 202
233 183 200 263 337 257 32 290 263 245 249 247 255 243 246 243 233 235 223 227 219 221 211 213 209 205 205 193 191 200 212 218 214 214 212 203 203 208 201 204 199 204 202 209 208 199 201 170 213
220 162 190 199 235 319 235 276 264 273 262 258 259 248 240 234 233 233 233 224 218 219 212 211 210 204 203 199 203 197 212 218 216 200 188 202 204 214 208 202 202 210 208 215 210 193 202 200 212
153 87 71 84 131 250 241 202 236 232 217 233 251 256 255 235 235 242 244 230 228 217 215 214 209 211 204 200 205 204 210 211 206 200 202 203 205 204 210 206 211 214 215 213 210 209 205 209 216
147 123 284 225 201 237 39 197 247 280 276 238 252 262 259 243 233 236 239 223 220 208 209 211 207 213 206 208 208 209 211 209 214 207 207 203 205 210 212 206 212 217 218 217 210 206 214 213 217
193 164 188 216 212 268 62 236 253 224 249 252 264 267 268 261 229 227 236 234 225 221 216 216 215 219 208 206 209 210 214 211 217 216 210 217 218 219 211 205 213 218 217 213 209 214 220 220 225
171 214 193 23 76 316 226 277 290 238 259 256 258 268 266 257 260 240 234 225 228 220 217 215 220 221 215 210 212 211 210 213 215 218 215 218 219 220 206 204 208 216 215 214 213 223 231 223 226
192 185 181 196 209 234 244 272 243 325 265 253 259 258 285 300 269 252 251 244 240 240 223 219 216 221 215 212 212 213 212 213 219 216 216 218 224 211 193 198 209 213 215 217 214 226 231 227 225
175 203 173 61 206 233 310 259 217 230 243 242 261 280 276 285 276 269 257 251 246 248 251 239 229 213 207 210 208 211 212 212 213 216 218 221 210 201 200 203 208 215 217 218 217 226 230 226 230
220 218 198 225 224 236 233 265 207 226 241 233 265 282 305 276 289 293 270 240 263 276 294 234 213 215 209 190 197 203 207 204 206 212 215 200 211 203 207 207 210 215 219 219 218 224 225 227 231